Погода в Сахаровке

Россия / Республика Татарстан     55°18′37″N   50°17′24″E
В апреле 2022 года жителям России запретили посещать сайт meteo.paraplan.net по решению Генеральной прокуратуры. Аудитория сайта уменьшилась в 10 раз. Владельцы сайта не видят смысла в поддержке погодного сервера в таких условиях. Сайт будет закрыт в октябре.
темп.,
°C
ветер,
м/с
пор.,
м/с
влажн.,
%
обл.,
%
осадки,
мм/ч
давл.,
гПа
погр.,
м
3 октября, пн
пн300:00+13ю71677100 0.1 1014432
03:00+13ю8178064 0.9 1014454
06:00+13ю8176967 0.9 1015442
09:00+14ю81658100 0.9 1016549
12:00+17ю9154627 0.0 1017812
15:00+17ю9154348 0.0 1017888
18:00+15ююв9174272 0.0 1018630
21:00+13ю71642100 0.0 1021627
4 октября, вт
вт400:00+12ююв71543100 0.0 1021470
03:00+12ююв71442100 0.0 1022400
06:00+11ююв61344100 0.0 1023359
09:00+12ююв61342100 0.0 1024492
12:00+13ююв61238100 0.0 1025634
15:00+13ююв5113859 0.0 1025460
18:00+13ююв61439100 0.0 1025363
21:00+12ю3644100 0.0 1025151
5 октября, ср
ср500:00+11ююв61335100 0.0 1025392
03:00+11ююв71242100 0.0 1025429
06:00+10ююв61360100 0.0 1025496
09:00+10ююв61247100 0.0 1024485
12:00+12ю61139100 0.0 1023629
15:00+10ююв71468100 0.1 1022769
18:00+9ю71462100 0.8 1021630
21:00+8ю71380100 1.7 1019582
6 октября, чт
чт600:00+8ю61392100 1.9 1017505
03:00+9ю51094100 2.9 1016410
06:00+9ююз4894100 0.1 1015305
09:00+10зюз3678100 0.6 1014765
12:00+8зюз378396 1.8 1014606
15:00+9зюз4675100 1.9 1014659
18:00+8з478255 0.7 1015488
21:00+7зюз4791100 0.9 1015394
7 октября, пт
пт700:00+8з5981100 0.3 1015528
03:00+6юз38885 0.3 1015187
06:00+5юз4992100 0.0 1014239
09:00+7ююз5987100 0.3 1013359
12:00+8юз61196100 0.8 1013571
15:00+10зсз61084100 1.0 1013813
18:00+9з51183100 0.1 1015624
21:00+10зюз71379100 0.1 1015696